x

Ilm2 - 5 Miles Se Of Wrightsville Beach, Nc (41038) Weather Station

1:08 - Wed 1st Mar 2017 All times are EST. -5 hours from GMT.

  • Wind
    13mph, 25mph gusts
  • Sea Temp 59°f
  • Ar Temp 64°f
  • Sea Pressure 1016mb
  • Ilm2 - 5 Miles Se Of Wrightsville Beach, Nc
  • Ilm2 - 5 Miles Se Of Wrightsville Beach, Nc

More Historic Weather Station data

Upgrade to MSW Pro to gain access to the past 30 days of data for over 8000 Wavebouys and Weather Stations around the globe.

Join Pro

Comparision Forecast

View Surf forecast
   
Qua 03/01 1:08 13 25 mph 1016mb 59f 64f
12:08 13 25 mph 1017.5mb 59f 64f
11:08 11 20 mph 1018.2mb 59f 63f
10:08 11 18 mph 1018.8mb 59f 62f
9:08 13 25 mph 1018.8mb 59f 63f
8:08 16 20 mph 1018.9mb 59f 63f
7:08 13 20 mph 1018.8mb 59f 63f
6:08 11 18 mph 1019.1mb 59f 62f
5:08 13 20 mph 1019mb 59f 62f
4:08 11 18 mph 1019.1mb 59f 62f
3:08 13 18 mph 1019.6mb 59f 62f
2:08 11 16 mph 1020.6mb 59f 62f
1:08 13 16 mph 1021.3mb 59f 62f
12:08 11 16 mph 1021.8mb 59f 61f
Ter 02/28 11:08 11 16 mph 1022.1mb 59f 61f
10:08 9 16 mph 1022.3mb 59f 61f
9:08 11 16 mph 1022.1mb 59f 62f
8:08 11 18 mph 1022.5mb 59f 62f
7:08 9 18 mph 1022.7mb 59f 62f
6:08 13 18 mph 1023mb 59f 63f
5:08 11 16 mph 1023.3mb 59f 63f
4:08 9 13 mph 1023.3mb 59f 63f
3:08 9 16 mph 1024mb 59f 63f
2:08 11 20 mph 1023.6mb 59f 63f
1:08 11 18 mph 1024.9mb 59f 63f
12:08 11 16 mph 1026.1mb 59f 63f
11:08 9 16 mph 1026.8mb 59f 62f
10:08 9 16 mph 1027mb 59f 61f
9:08 7 11 mph 1026.5mb 58f 61f
8:08 4 7 mph 1026.3mb 58f 60f
7:08 9 13 mph 1025.8mb 58f 59f
6:08 13 18 mph 1025.4mb 58f 59f
5:08 9 16 mph 1026.4mb 58f 60f
4:08 4 9 mph 1025.3mb 58f 61f
3:08 2 7 mph 1026.5mb 58f 60f
2:08 7 9 mph 1026.6mb 58f 60f
1:08 2 7 mph 1026.4mb 58f 60f
12:08 7 11 mph 1026.5mb 58f 62f
Seg 02/27 11:08 13 22 mph 1026mb 58f 62f
10:08 13 20 mph 1026.8mb 58f 61f
9:08 7 11 mph 1028.1mb 58f 59f
7:08 4 9 mph 1028.6mb 58f 59f
6:08 4 9 mph 1028.5mb 58f 59f
5:08 7 9 mph 1028.4mb 58f 59f
4:08 7 11 mph 1028.2mb 58f 59f
3:08 9 13 mph 1028.4mb 58f 59f
2:08 11 18 mph 1028.6mb 58f 59f
1:08 11 20 mph 1029.7mb 58f 59f
12:08 13 22 mph 1030.1mb 58f 58f
11:08 13 20 mph 1030.2mb 58f 58f
10:08 11 16 mph 1029.8mb 58f 59f
9:08 13 20 mph 1028.9mb 58f 59f
8:08 16 27 mph 1028.7mb 58f 58f
7:08 11 18 mph 1028.5mb 58f 58f
6:08 7 11 mph 1028.6mb 58f 56f
5:08 7 11 mph 1028.1mb 58f 55f
4:08 4 7 mph 1027.8mb 58f 55f
3:08 4 7 mph 1027mb 58f 54f
2:08 4 7 mph 1027.5mb 58f 53f
1:08 4 9 mph 1027.6mb 58f 53f
Dom 02/26 11:08 7 9 mph 1026.8mb 58f 55f
10:08 7 11 mph 1026.5mb 58f 56f
9:08 9 11 mph 1025.8mb 58f 56f
8:08 7 11 mph 1025.2mb 58f 56f
7:08 9 16 mph 1024.4mb 58f 55f
6:08 11 18 mph 1023.4mb 58f 55f
5:08 11 18 mph 1022.5mb 59f 55f
4:08 13 18 mph 1022.4mb 59f 54f
3:08 9 16 mph 1022mb 59f 55f
2:08 7 9 mph 1021.6mb 59f 55f
1:08 4 9 mph 1021.6mb 59f 54f
12:08 9 16 mph 1022.2mb 58f 53f
11:08 13 20 mph 1022.5mb 58f 51f
10:08 13 22 mph 1022.2mb 58f 50f
9:08 13 25 mph 1021.2mb 58f 49f
8:08 16 31 mph 1020.3mb 58f 49f
7:08 18 29 mph 1019mb 58f 50f
6:08 18 31 mph 1017.7mb 58f 51f
5:08 18 31 mph 1016mb 58f 53f
4:08 18 27 mph 1014.7mb 58f 55f
3:08 13 25 mph 1013.8mb 58f 57f
2:08 13 18 mph 1012.8mb 59f 60f
1:08 11 16 mph 1011.9mb 59f 61f
12:08 13 20 mph 1010.6mb 59f 63f
Sáb 02/25 11:08 13 25 mph 1009.8mb 58f 65f
10:08 13 18 mph 1008.7mb 58f 63f
9:08 11 20 mph 1007.1mb 58f 62f
8:08 13 20 mph 1006.4mb 59f 63f